軌道要素
Epoch 2020 Sept. 28.0 TT = JDT 2459120.5
T 2020 Sept. 26.18666 TT Bell
q 1.2737513 (2000.0) P Q
n 0.19304108 Peri. 334.91070 -0.32580875 +0.92269474
a 2.9650786 Node 275.51939 -0.82874411 -0.38364689
e 0.5704157 Incl. 11.95095 -0.45500754 +0.03807207
P 5.11
From 93 observations 2005 July 28-2020 Feb. 1, mean residual 0".6.
|